TimeCST,TemperatureF,Dew PointF,Humidity,Sea Level PressureIn,VisibilityMPH,Wind Direction,Wind SpeedMPH,Gust SpeedMPH,PrecipitationIn,Events,Conditions,WindDirDegrees,DateUTC
12:13 AM,-4.0,-7.6,85,30.18,10.0,North,3.5,-,N/A,,Clear,350,2013-02-07 06:13:00
12:33 AM,-2.2,-5.8,85,30.18,10.0,NNW,6.9,-,N/A,,Clear,330,2013-02-07 06:33:00
12:54 AM,-4.0,-7.6,85,30.18,10.0,North,5.8,-,N/A,,Clear,10,2013-02-07 06:54:00
1:13 AM,-2.2,-5.8,85,30.18,10.0,North,8.1,-,N/A,,Clear,10,2013-02-07 07:13:00
1:33 AM,-4.0,-7.6,85,30.19,10.0,NNW,5.8,-,N/A,,Clear,340,2013-02-07 07:33:00
1:54 AM,-4.0,-7.6,85,30.19,10.0,North,6.9,-,N/A,,Clear,10,2013-02-07 07:54:00
2:13 AM,-4.0,-7.6,85,30.20,10.0,North,5.8,-,N/A,,Clear,10,2013-02-07 08:13:00
2:33 AM,-5.8,-9.4,84,30.20,10.0,North,3.5,-,N/A,,Clear,360,2013-02-07 08:33:00
2:54 AM,-4.0,-7.6,85,30.20,10.0,North,4.6,-,N/A,,Clear,10,2013-02-07 08:54:00
3:13 AM,-5.8,-9.4,84,30.21,10.0,North,5.8,-,N/A,,Clear,350,2013-02-07 09:13:00
3:33 AM,-7.6,-11.2,84,30.21,10.0,North,4.6,-,N/A,,Clear,360,2013-02-07 09:33:00
3:54 AM,-5.8,-9.4,84,30.20,10.0,North,4.6,-,N/A,,Clear,10,2013-02-07 09:54:00
4:13 AM,-7.6,-11.2,84,30.20,10.0,North,6.9,-,N/A,,Clear,10,2013-02-07 10:13:00
4:33 AM,-7.6,-13.0,77,30.21,10.0,North,5.8,-,N/A,,Clear,350,2013-02-07 10:33:00
4:53 AM,-7.6,-11.2,84,30.22,10.0,North,3.5,-,N/A,,Clear,360,2013-02-07 10:53:00
5:13 AM,-7.6,-11.2,84,30.22,10.0,North,3.5,-,N/A,,Clear,350,2013-02-07 11:13:00
5:33 AM,-7.6,-11.2,84,30.22,10.0,North,3.5,-,N/A,,Clear,360,2013-02-07 11:33:00
5:53 AM,-9.4,-13.0,84,30.22,10.0,Calm,Calm,-,N/A,,Clear,0,2013-02-07 11:53:00
6:14 AM,-7.6,-11.2,84,30.22,10.0,North,4.6,-,N/A,,Clear,10,2013-02-07 12:14:00
6:33 AM,-9.4,-13.0,84,30.23,10.0,North,4.6,-,N/A,,Clear,350,2013-02-07 12:33:00
6:54 AM,-9.4,-13.0,84,30.23,10.0,North,5.8,-,N/A,,Clear,10,2013-02-07 12:54:00
7:13 AM,-11.2,-14.8,84,30.24,10.0,North,4.6,-,N/A,,Clear,350,2013-02-07 13:13:00
7:34 AM,-9.4,-13.0,84,30.24,10.0,North,4.6,-,N/A,,Clear,360,2013-02-07 13:34:00
7:53 AM,-7.6,-13.0,77,30.25,10.0,North,6.9,-,N/A,,Clear,360,2013-02-07 13:53:00
8:13 AM,-7.6,-11.2,84,30.26,10.0,North,6.9,-,N/A,,Clear,360,2013-02-07 14:13:00
8:34 AM,-7.6,-11.2,84,30.26,10.0,North,4.6,-,N/A,,Clear,10,2013-02-07 14:34:00
8:53 AM,-5.8,-11.2,77,30.27,10.0,North,3.5,-,N/A,,Clear,10,2013-02-07 14:53:00
9:14 AM,-5.8,-9.4,84,30.27,10.0,North,3.5,-,N/A,,Clear,360,2013-02-07 15:14:00
9:33 AM,-5.8,-9.4,84,30.27,10.0,North,3.5,-,N/A,,Clear,10,2013-02-07 15:33:00
9:53 AM,-5.8,-9.4,84,30.28,10.0,North,3.5,-,N/A,,Clear,360,2013-02-07 15:53:00
10:14 AM,-4.0,-7.6,85,30.28,10.0,North,4.6,-,N/A,,Clear,350,2013-02-07 16:14:00
10:33 AM,-2.2,-7.6,78,30.28,10.0,North,4.6,-,N/A,,Clear,360,2013-02-07 16:33:00
10:54 AM,-4.0,-7.6,85,30.28,10.0,NW,4.6,-,N/A,,Clear,320,2013-02-07 16:54:00
11:13 AM,-2.2,-7.6,78,30.29,10.0,NW,4.6,-,N/A,,Clear,320,2013-02-07 17:13:00
11:34 AM,-2.2,-5.8,85,30.29,10.0,NW,4.6,-,N/A,,Clear,310,2013-02-07 17:34:00
11:54 AM,-0.4,-5.8,78,30.28,10.0,NW,5.8,-,N/A,,Clear,310,2013-02-07 17:54:00
12:13 PM,-0.4,-5.8,78,30.28,10.0,NW,5.8,-,N/A,,Clear,320,2013-02-07 18:13:00
12:34 PM,1.4,-2.2,85,30.28,10.0,NW,4.6,-,N/A,,Clear,320,2013-02-07 18:34:00
12:54 PM,3.2,-2.2,78,30.28,10.0,NW,3.5,-,N/A,,Clear,310,2013-02-07 18:54:00
1:13 PM,3.2,-2.2,78,30.28,10.0,NW,3.5,-,N/A,,Clear,310,2013-02-07 19:13:00
1:34 PM,3.2,-2.2,78,30.28,10.0,Calm,Calm,-,N/A,,Clear,0,2013-02-07 19:34:00
1:54 PM,5.0,-2.2,72,30.27,10.0,Calm,Calm,-,N/A,,Clear,0,2013-02-07 19:54:00
2:13 PM,5.0,-0.4,78,30.27,10.0,Calm,Calm,-,N/A,,Mostly Cloudy,0,2013-02-07 20:13:00
2:33 PM,6.8,-0.4,72,30.27,10.0,Calm,Calm,-,N/A,,Overcast,0,2013-02-07 20:33:00
2:54 PM,8.6,1.4,73,30.27,10.0,North,3.5,-,N/A,,Overcast,360,2013-02-07 20:54:00
3:13 PM,10.4,1.4,67,30.27,10.0,North,4.6,-,N/A,,Overcast,10,2013-02-07 21:13:00
3:34 PM,10.4,1.4,67,30.26,7.0,NNE,5.8,-,N/A,Snow,Light Snow,20,2013-02-07 21:34:00
3:53 PM,8.6,1.4,73,30.26,10.0,NNE,3.5,-,N/A,Snow,Light Snow,30,2013-02-07 21:53:00
4:14 PM,10.4,3.2,73,30.26,10.0,Calm,Calm,-,N/A,,Scattered Clouds,0,2013-02-07 22:14:00
4:34 PM,8.6,1.4,73,30.26,10.0,North,5.8,-,N/A,,Clear,10,2013-02-07 22:34:00
4:53 PM,8.6,1.4,73,30.26,10.0,NNE,6.9,-,N/A,,Clear,30,2013-02-07 22:53:00
5:34 PM,5.0,-0.4,78,30.27,10.0,Calm,Calm,-,N/A,,Mostly Cloudy,0,2013-02-07 23:34:00
5:53 PM,5.0,-0.4,78,30.27,10.0,NNE,3.5,-,N/A,,Clear,30,2013-02-07 23:53:00
6:14 PM,6.8,1.4,79,30.27,10.0,NE,3.5,-,N/A,,Clear,50,2013-02-08 00:14:00
6:34 PM,6.8,1.4,79,30.28,10.0,NE,3.5,-,N/A,,Clear,50,2013-02-08 00:34:00
6:53 PM,1.4,-2.2,85,30.28,10.0,Calm,Calm,-,N/A,,Clear,0,2013-02-08 00:53:00
7:14 PM,1.4,-2.2,85,30.28,10.0,Calm,Calm,-,N/A,,Clear,0,2013-02-08 01:14:00
7:33 PM,3.2,-0.4,85,30.27,10.0,Calm,Calm,-,N/A,,Clear,0,2013-02-08 01:33:00
7:53 PM,1.4,-0.4,92,30.28,10.0,Calm,Calm,-,N/A,,Clear,0,2013-02-08 01:53:00
8:13 PM,-0.4,-4.0,85,30.28,10.0,Calm,Calm,-,N/A,,Clear,0,2013-02-08 02:13:00
8:33 PM,1.4,-2.2,85,30.28,10.0,Calm,Calm,-,N/A,,Clear,0,2013-02-08 02:33:00
8:54 PM,-0.4,-4.0,85,30.27,10.0,Calm,Calm,-,N/A,,Clear,0,2013-02-08 02:54:00
9:13 PM,3.2,1.4,92,30.27,10.0,Calm,Calm,-,N/A,,Clear,0,2013-02-08 03:13:00
9:34 PM,-2.2,-5.8,85,30.28,10.0,Calm,Calm,-,N/A,,Clear,0,2013-02-08 03:34:00
9:53 PM,-0.4,-5.8,78,30.28,10.0,Calm,Calm,-,N/A,,Clear,0,2013-02-08 03:53:00
10:14 PM,-0.4,-4.0,85,30.28,10.0,Calm,Calm,-,N/A,,Clear,0,2013-02-08 04:14:00
10:33 PM,-2.2,-7.6,78,30.29,10.0,Calm,Calm,-,N/A,,Clear,0,2013-02-08 04:33:00
10:54 PM,-2.2,-7.6,78,30.28,10.0,Calm,Calm,-,N/A,,Clear,0,2013-02-08 04:54:00
11:13 PM,-4.0,-7.6,85,30.28,10.0,Calm,Calm,-,N/A,,Clear,0,2013-02-08 05:13:00
11:34 PM,-5.8,-9.4,84,30.28,10.0,Calm,Calm,-,N/A,,Clear,0,2013-02-08 05:34:00
11:53 PM,-5.8,-9.4,84,30.29,4.0,Calm,Calm,-,N/A,,Clear,0,2013-02-08 05:53:00